• Join FlightAware (Why Join?)
  • Login
  • US Flag 
01:41AM EDT


 

Airport Tracker/Info


-or-


 

Live Flight TrackerFlight Track Log ✈ N789EX ✈ 25-Oct-2013 ✈ KMWH - KBFI

Flight Track Log - Related Links

Times and Time Zones

All times are in EDT time to prevent confusion due to time zone crossing. See the N789EX flight status page for this flight to view local times or setup timezone preferences in your user account.

Time Position Orientation Groundspeed Altitude Reporting Facility
EDT Latitude Longitude Course Direction KTS MPH feet Rate Location/Type
03:30PM 47.2608 -119.3131 76° East 393 452 15,000  Level Seattle Center
03:31PM 47.3239 -119.2250 43° Northeast 377 434 15,300 900 Climbing Seattle Center
03:32PM 47.3461 -119.0717 78° East 383 441 16,900 1,560 Climbing Seattle Center
03:33PM 47.3711 -118.9139 77° East 394 453 18,600 1,800 Climbing Seattle Center
03:34PM 47.3983 -118.7542 76° East 400 460 20,600 1,620 Climbing Seattle Center
03:35PM 47.4261 -118.5911 76° East 408 470 22,000 660 Climbing Seattle Center
03:36PM 47.2850 -119.9645 76° East  Level Estimated
03:36PM 47.4636 -118.3764 75° East 455 524 22,000  Level Seattle Center
03:37PM 47.5011 -118.1831 74° East 487 560 22,000  Level Seattle Center
03:38PM 47.5436 -117.9933 72° East 488 562 22,000  Level Seattle Center
03:39PM 47.5894 -117.7983 71° East 498 573 22,000  Level Seattle Center
03:40PM 47.6381 -117.6047 70° East 500 575 22,000  Level Seattle Center
03:41PM 47.6819 -117.4050 72° East 504 580 22,000  Level Seattle Center
03:42PM 47.6964 -117.1894 84° East 514 592 22,000 -60 Level Seattle Center
03:43PM 47.7108 -116.9700 84° East 518 596 21,900 -60 Descending Seattle Center
03:45PM 47.7103 -116.7544 90° East 516 594 21,900  Level Seattle Center
03:46PM 47.7142 -116.5356 88° East 526 605 22,000  Climbing Seattle Center
03:47PM 47.7214 -116.3172 87° East 528 608 22,000  Level Seattle Center
03:48PM 47.7556 -116.1133 76° East 535 616 22,000  Level Seattle Center
03:49PM 47.8828 -116.1269 356° North 529 609 22,000 -60 Level Seattle Center
03:50PM 47.8953 -116.3372 275° West 534 615 21,900 -60 Descending Seattle Center
03:51PM 47.8661 -116.5544 259° West 538 619 21,900  Level Seattle Center
03:52PM 47.8289 -116.8139 258° West 540 621 22,000  Climbing Seattle Center
03:53PM 47.8217 -117.0347 267° West 545 627 21,900 -60 Descending Seattle Center
03:54PM 47.8206 -117.2553 270° West 545 627 21,900  Level Seattle Center
03:55PM 47.8194 -117.4794 270° West 549 632 22,000  Climbing Seattle Center
03:56PM 47.8225 -117.7050 271° West 558 642 21,900 -60 Descending Seattle Center
03:57PM 47.8469 -117.9278 279° West 550 633 21,900  Level Seattle Center
03:58PM 47.8753 -118.1464 281° West 545 627 21,900  Level Seattle Center
03:59PM 47.9039 -118.4097 279° West 540 621 22,000  Climbing Seattle Center
04:00PM 47.9219 -118.6317 277° West 542 624 21,900  Descending Seattle Center
04:05PM 48.0030 -119.8850 277° West 476 548 22,000  Climbing FlightAware
04:06PM 48.0130 -120.0620 275° West 475 547 22,000  Level FlightAware
04:07PM 48.0200 -120.1850 275° West 476 548 22,000  Level FlightAware
04:07PM 48.0260 -120.2830 275° West 472 543 22,000  Level FlightAware
04:08PM 48.0330 -120.4120 275° West 472 543 22,000  Level FlightAware
04:09PM 48.0400 -120.5090 276° West 472 543 22,000  Level FlightAware
04:10PM 48.0530 -120.7020 276° West 471 542 22,000  Level FlightAware
04:10PM 48.0600 -120.8210 275° West 473 544 22,000  Level FlightAware
04:11PM 48.0720 -121.0070 276° West 470 541 22,000 420 Level FlightAware
04:12PM 48.0820 -121.1570 276° West 471 542 22,800 720 Climbing FlightAware
04:13PM 48.0880 -121.2710 275° West 465 535 23,000 180 Climbing FlightAware
04:13PM 48.0930 -121.3560 275° West 465 535 23,000  Level FlightAware
04:14PM 48.1010 -121.5010 275° West 465 535 23,000  Level FlightAware
04:14PM 48.1090 -121.6310 275° West 463 533 23,000  Level FlightAware
04:15PM 48.1310 -121.7320 288° West 464 534 23,000  Level FlightAware
04:16PM 48.1830 -121.7820 327° Northwest 451 519 23,000  Level FlightAware
04:16PM 48.2780 -121.7220 23° Northeast 445 512 23,000 -360 Level FlightAware
04:17PM 48.2910 -121.6530 74° East 425 489 22,600 -2,700 Descending FlightAware
04:17PM 48.2640 -121.5660 115° Southeast 386 444 20,300 -4,500 Descending FlightAware
04:18PM 48.1850 -121.4760 143° Southeast 368 423 15,700 -4,560 Descending FlightAware
04:19PM 48.1510 -121.4600 163° South 347 399 14,300 -2,040 Descending FlightAware
04:19PM 48.0970 -121.4860 198° South 339 390 13,700 -600 Descending FlightAware
04:20PM 48.0610 -121.5190 211° Southwest 279 321 13,700 -660 Level FlightAware
04:20PM 48.0350 -121.5460 215° Southwest 273 314 13,100 -2,400 Descending FlightAware
04:21PM 47.9980 -121.5840 215° Southwest 267 307 11,300 -2,160 Descending FlightAware
04:21PM 47.9620 -121.6240 217° Southwest 265 305 10,600 -540 Descending FlightAware
04:22PM 47.9250 -121.6630 215° Southwest 264 304 10,700 -720 Climbing FlightAware
04:23PM 47.8850 -121.7060 216° Southwest 259 298 9,700 -1,980 Descending FlightAware
04:23PM 47.8600 -121.7410 223° Southwest 251 289 8,400 -3,000 Descending FlightAware
04:24PM 47.8460 -121.7810 242° Southwest 260 299 7,100 -2,220 Descending FlightAware
04:24PM 47.8400 -121.8320 260° West 260 299 6,500 -1,320 Descending FlightAware
04:25PM 47.8340 -121.8860 261° West 251 289 5,800 -1,200 Descending FlightAware
04:25PM 47.8280 -121.9360 260° West 238 274 5,300 -1,320 Descending FlightAware
04:25PM 47.8240 -121.9720 261° West 235 270 4,700 -1,620 Descending FlightAware
04:26PM 47.8180 -122.0190 259° West 232 267 3,900 -1,620 Descending FlightAware
04:26PM 47.8130 -122.0660 261° West 230 265 3,100 -1,380 Descending FlightAware
04:27PM 47.8030 -122.1080 250° West 224 258 2,600 -420 Descending FlightAware
04:27PM 47.7900 -122.1550 248° West 208 239 2,700  Climbing FlightAware
04:28PM 47.7770 -122.1980 246° West 210 242 2,600 -660 Descending FlightAware
04:29PM 47.7650 -122.2420 248° West 212 244 2,000 -660 Descending FlightAware
04:29PM 47.7510 -122.2890 246° West 211 243 1,900 -120 Descending FlightAware
04:30PM 47.7420 -122.3210 247° West 212 244 1,900  Level FlightAware
04:30PM 47.7260 -122.3520 233° Southwest 211 243 1,900  Level FlightAware
04:31PM 47.7060 -122.3840 227° Southwest 211 243 1,900  Level FlightAware
04:31PM 47.6810 -122.4140 219° Southwest 200 230 1,900  Level FlightAware
04:32PM 47.6540 -122.4080 171° South 200 230 1,900 -120 Level FlightAware
04:32PM 47.6290 -122.3870 150° Southeast 171 197 1,800 -660 Descending FlightAware
04:33PM 47.6010 -122.3630 150° Southeast 146 168 1,100 -840 Descending FlightAware
04:33PM 47.5860 -122.3500 150° Southeast 147 169 800 -900 Descending FlightAware
04:34PM 47.5630 -122.3310 151° Southeast 145 167 200 -540 Descending FlightAware
04:34PM 47.5480 -122.3180 150° Southeast 145 167 200 -120 Level FlightAware
04:35PM 47.5161 -122.2908 150° Southeast 145 167 100 -120 Descending Seattle Center
04:38PM 47.5167 -122.3000 247° West  Level FlightAware Approximate
04:45PM 47.5300 -122.3020 247° West  Level Estimated